DW9313 Weather Reports


time (UTC)temp
F
wind
direction
speed
knots
gust
knots
rain 1hr
in
rain 24hr
in
rain mn
in
humidity
%
barometer
mb
20260904212257 58 283 2.6 6.1 0.00 0.09 0.02 80 1019.6
20260904211758 58 287 3.5 5.2 0.00 0.10 0.02 80 1019.6
20260904211257 58 289 2.6 5.2 0.00 0.10 0.02 80 1019.7
20260904210757 58 287 0.9 5.2 0.00 0.11 0.02 80 1019.6
20260904210259 58 286 0.9 2.6 0.00 0.12 0.02 80 1019.7
20260904205759 58 286 0.0 1.7 0.00 0.12 0.02 80 1019.6
20260904205257 58 292 0.0 0.9 0.00 0.13 0.02 80 1019.6
20260904204758 58 291 0.0 0.9 0.00 0.14 0.02 79 1019.6
20260904204257 58 289 0.9 2.6 0.00 0.17 0.02 79 1019.6
20260904202759 58 271 0.9 2.6 0.00 0.24 0.02 79 1019.4
20260904202259 58 288 1.7 4.3 0.00 0.26 0.02 79 1019.3
20260904201758 58 281 1.7 2.6 0.00 0.28 0.02 79 1019.3
20260904200759 59 288 0.9 1.7 0.00 0.31 0.02 78 1019.2
20260904200257 59 295 0.0 0.9 0.00 0.32 0.02 78 1019.0
20260904195759 59 202 0.0 0.9 0.00 0.34 0.02 78 1019.0
20260904195257 59 152 0.0 1.7 0.00 0.34 0.02 77 1018.9
20260904194759 59 274 0.0 1.7 0.00 0.35 0.02 77 1018.9
20260904194257 60 293 0.0 2.6 0.00 0.35 0.02 77 1018.8
20260904193759 60 277 0.0 1.7 0.00 0.35 0.02 77 1018.6
20260904193259 60 299 0.0 4.3 0.00 0.35 0.02 76 1018.5
20260904192758 60 284 0.0 1.7 0.00 0.35 0.02 76 1018.4
20260904191758 60 265 0.9 1.7 0.00 0.35 0.02 76 1018.2
20260904191258 61 272 0.9 5.2 0.00 0.35 0.02 76 1018.1
20260904190800 61 282 0.9 2.6 0.00 0.35 0.02 77 1018.0
20260904185758 62 280 0.0 4.3 0.00 0.35 0.02 76 1018.0
20260904185258 62 282 1.7 5.2 0.00 0.35 0.02 76 1018.0
20260904184759 62 282 2.6 5.2 0.00 0.35 0.02 76 1017.9
20260904184259 63 283 1.7 5.2 0.00 0.35 0.02 76 1017.9
20260904183759 63 278 2.6 5.2 0.00 0.35 0.02 75 1017.9
20260904183259 63 273 2.6 5.2 0.00 0.35 0.02 74 1017.7
20260904182759 63 291 3.5 7.0 0.00 0.35 0.02 73 1017.7
20260904182258 64 286 5.2 8.7 0.00 0.35 0.02 72 1017.7
20260904181758 64 288 4.3 7.8 0.00 0.35 0.02 72 1017.5
20260904181258 64 271 4.3 8.7 0.00 0.35 0.02 72 1017.5
20260904180759 64 292 3.5 7.8 0.00 0.35 0.02 72 1017.5
20260904175800 65 292 4.3 8.7 0.00 0.35 0.02 72 1017.4
20260904175259 65 293 5.2 11.3 0.00 0.35 0.02 71 1017.4
20260904174259 65 282 5.2 8.7 0.00 0.35 0.02 71 1017.4
20260904173800 65 292 3.5 7.8 0.00 0.35 0.02 71 1017.3
20260904173300 65 279 4.3 8.7 0.00 0.35 0.02 72 1017.3
20260904172259 66 287 1.7 7.8 0.00 0.35 0.02 73 1017.2
20260904171800 66 276 4.3 6.1 0.00 0.35 0.02 73 1017.2
20260904171259 66 291 5.2 7.8 0.00 0.35 0.02 72 1017.2
20260904170301 65 276 2.6 8.7 0.00 0.35 0.02 74 1017.1
20260904165759 65 291 4.3 8.7 0.00 0.35 0.02 74 1017.0
20260904164807 64 277 4.3 8.7 0.00 0.35 0.02 75 1016.9
20260904164306 64 278 3.5 10.4 0.00 0.35 0.02 75 1016.9
20260904163300 64 295 2.6 6.1 0.00 0.35 0.02 77 1016.7
20260904162805 64 284 5.2 7.8 0.00 0.35 0.02 76 1016.7
20260904162305 64 286 5.2 8.7 0.00 0.35 0.02 75 1016.6
20260904161759 64 287 4.3 7.8 0.00 0.35 0.02 74 1016.5
20260904160800 65 279 5.2 12.2 0.00 0.35 0.02 73 1016.4
20260904160300 65 293 4.3 10.4 0.00 0.35 0.02 73 1016.4
20260904155800 65 290 6.1 11.3 0.00 0.35 0.02 72 1016.3
20260904154300 64 284 5.2 8.7 0.00 0.35 0.02 73 1016.3
20260904153800 64 282 6.1 10.4 0.00 0.35 0.02 73 1016.2
20260904152800 64 288 5.2 11.3 0.00 0.35 0.02 73 1016.3
20260904152300 64 279 6.1 13.0 0.00 0.35 0.02 74 1016.2
20260904151801 65 285 5.2 11.3 0.00 0.35 0.02 75 1016.2
20260904151302 65 263 4.3 6.1 0.00 0.35 0.02 75 1016.2
20260904150800 65 294 4.3 10.4 0.00 0.35 0.02 77 1016.0
20260904145800 64 289 4.3 8.7 0.00 0.35 0.02 77 1016.1
20260904145300 65 273 7.0 11.3 0.00 0.35 0.02 74 1015.9
20260904144801 66 279 5.2 11.3 0.00 0.35 0.02 74 1015.8
20260904144300 65 293 6.1 12.2 0.00 0.35 0.02 75 1015.8
20260904143801 64 286 4.3 7.8 0.00 0.35 0.02 77 1015.8
20260904143300 64 287 1.7 5.2 0.00 0.35 0.02 80 1015.8
20260904142802 63 275 1.7 5.2 0.00 0.35 0.02 79 1015.8
20260904142300 63 284 1.7 7.0 0.00 0.35 0.02 79 1015.7
20260904141301 63 283 5.2 8.7 0.00 0.35 0.02 78 1015.7
20260904140800 63 282 5.2 12.2 0.00 0.35 0.02 77 1015.7
20260904140301 63 288 5.2 7.0 0.00 0.35 0.02 77 1015.6
20260904135801 63 284 2.6 5.2 0.00 0.35 0.02 78 1015.6
20260904134802 63 287 4.3 6.1 0.00 0.35 0.02 77 1015.6
20260904134301 63 293 2.6 6.1 0.00 0.35 0.02 76 1015.6
20260904133801 64 308 0.9 5.2 0.00 0.35 0.02 77 1015.7
20260904133300 63 300 1.7 5.2 0.00 0.35 0.02 76 1015.7
20260904132802 63 291 2.6 8.7 0.00 0.35 0.02 76 1015.7
20260904131801 64 294 3.5 6.1 0.00 0.35 0.02 74 1015.6
20260904131301 64 288 2.6 11.3 0.00 0.35 0.02 74 1015.5
20260904130802 64 280 3.5 11.3 0.00 0.35 0.02 76 1015.5
20260904130300 64 289 5.2 12.2 0.00 0.35 0.02 76 1015.4
20260904125801 63 272 1.7 7.8 0.00 0.35 0.02 77 1015.3
20260904125305 63 295 6.1 11.3 0.00 0.35 0.02 76 1015.2
20260904124803 64 304 5.2 12.2 0.00 0.35 0.02 75 1015.1
20260904124301 64 299 5.2 12.2 0.00 0.35 0.02 75 1015.1
20260904123801 64 277 6.1 13.0 0.00 0.35 0.02 73 1014.9
20260904123302 64 286 3.5 13.0 0.00 0.35 0.02 74 1014.9
20260904122306 64 293 5.2 11.3 0.00 0.35 0.02 73 1014.8
20260904121801 64 278 5.2 12.2 0.00 0.35 0.02 75 1014.8
20260904121301 64 294 3.5 7.8 0.00 0.35 0.02 75 1014.7
20260904120302 65 281 4.3 10.4 0.00 0.35 0.02 72 1014.7
20260904115802 65 299 5.2 11.3 0.00 0.35 0.02 72 1014.6
20260904115306 64 288 3.5 7.8 0.00 0.35 0.02 74 1014.6
20260904114802 64 277 6.1 12.2 0.00 0.35 0.02 74 1014.6
20260904113802 64 296 6.1 13.0 0.00 0.35 0.02 74 1014.4
20260904113303 64 291 6.1 14.8 0.00 0.35 0.02 73 1014.3
20260904112803 64 302 5.2 14.8 0.00 0.35 0.02 74 1014.5
20260904112305 63 270 5.2 11.3 0.00 0.35 0.02 74 1014.6
20260904111803 63 290 6.1 13.9 0.00 0.35 0.02 74 1014.3
20260904110802 63 282 6.1 11.3 0.00 0.35 0.02 75 1014.2
20260904110302 63 280 7.8 13.0 0.00 0.35 0.02 76 1014.1
20260904105305 62 287 7.0 12.2 0.00 0.35 0.02 76 1013.9
20260904104302 62 287 5.2 12.2 0.00 0.35 0.02 76 1014.0
20260904103803 62 294 6.1 11.3 0.00 0.35 0.02 76 1014.0
20260904103303 62 287 6.1 13.9 0.00 0.35 0.02 75 1013.9
20260904102306 62 279 7.8 15.6 0.00 0.35 0.02 75 1013.8
20260904101302 62 285 5.2 10.4 0.00 0.35 0.02 76 1013.7
20260904100803 62 286 5.2 12.2 0.00 0.35 0.02 76 1013.7
20260904100305 62 290 7.0 12.2 0.00 0.35 0.02 75 1013.7
20260904095306 61 292 5.2 13.0 0.00 0.35 0.02 76 1013.7
20260904094803 61 296 6.1 12.2 0.00 0.35 0.02 77 1013.7
20260904094303 61 290 6.1 12.2 0.00 0.35 0.02 76 1013.6
20260904093804 61 292 9.6 15.6 0.00 0.35 0.02 76 1013.5
20260904093304 61 277 7.8 13.9 0.00 0.35 0.02 76 1013.4
20260904092803 61 284 6.1 10.4 0.00 0.35 0.02 77 1013.3
20260904092306 60 288 6.1 12.2 0.00 0.35 0.02 78 1013.2
20260904091805 60 294 6.1 8.7 0.00 0.35 0.02 78 1013.1
20260904091303 60 282 7.0 13.9 0.00 0.35 0.02 78 1013.2
20260904090803 60 278 6.1 10.4 0.00 0.35 0.02 78 1013.0
20260904090304 60 279 7.0 7.8 0.00 0.35 0.02 77 1013.0
20260904085803 60 269 7.8 12.2 0.00 0.35 0.02 77 1013.0
20260904085305 60 288 7.8 10.4 0.00 0.35 0.02 78 1013.0
20260904084805 60 286 6.1 11.3 0.00 0.35 0.02 79 1013.0
20260904083804 60 296 4.3 13.9 0.00 0.35 0.02 79 1012.7
20260904082804 60 286 6.1 11.3 0.00 0.35 0.02 78 1012.6
20260904082305 60 296 7.8 13.9 0.00 0.35 0.02 78 1012.3
20260904081805 60 288 8.7 14.8 0.00 0.35 0.02 78 1012.3
20260904081303 60 290 6.1 12.2 0.00 0.35 0.02 78 1012.4
20260904080805 60 290 7.0 12.2 0.00 0.35 0.02 78 1012.2
20260904080304 60 281 6.1 10.4 0.00 0.35 0.02 78 1012.3
20260904075804 60 286 6.1 13.0 0.00 0.35 0.02 77 1012.2
20260904074805 60 284 5.2 10.4 0.00 0.35 0.02 78 1012.2
20260904073803 60 290 5.2 11.3 0.00 0.35 0.02 78 1012.1
20260904072804 60 282 5.2 10.4 0.00 0.35 0.02 79 1012.1
20260904071806 59 285 2.6 5.2 0.00 0.35 0.02 79 1012.1
20260904070304 59 283 2.6 6.1 0.00 0.35 0.02 80 1011.9
20260904065804 59 297 1.7 6.1 0.00 0.35 0.02 80 1011.8
20260904065306 59 302 1.7 5.2 0.00 0.35 0.02 81 1011.7
20260904063804 58 283 0.0 0.0 0.00 0.35 0.02 84 1011.6
20260904063304 58 288 0.9 6.1 0.00 0.35 0.02 84 1011.6
20260904062306 58 244 0.0 1.7 0.00 0.35 0.02 83 1011.4
20260904061806 58 284 0.0 0.9 0.00 0.35 0.02 83 1011.3
20260904061304 58 279 0.9 4.3 0.00 0.35 0.02 82 1011.3
20260904060805 59 293 0.9 1.7 0.00 0.35 0.02 82 1011.3
20260904060305 59 274 0.9 2.6 0.00 0.35 0.02 82 1011.1
20260904055805 59 299 2.6 6.1 0.00 0.35 0.02 82 1011.0
20260904055306 59 287 1.7 5.2 0.00 0.35 0.02 83 1011.1
20260904054805 59 296 0.9 5.2 0.00 0.35 0.02 83 1011.1
20260904054306 58 296 0.9 5.2 0.00 0.35 0.02 84 1011.1
20260904053806 58 291 0.9 4.3 0.00 0.35 0.02 84 1010.8
20260904053304 58 275 0.0 4.3 0.00 0.35 0.02 85 1010.8
20260904052805 58 297 0.0 0.9 0.00 0.35 0.02 84 1010.8
20260904052307 58 242 0.0 1.7 0.00 0.35 0.02 85 1010.7
20260904051806 58 280 0.0 2.6 0.00 0.35 0.02 85 1010.7
20260904051305 58 292 0.9 2.6 0.00 0.35 0.02 86 1010.5
20260904050806 58 276 0.0 5.2 0.00 0.35 0.02 87 1010.6
20260904045805 58 280 0.0 2.6 0.00 0.35 0.02 91 1010.7
20260904045307 58 299 0.9 8.7 0.00 0.35 0.02 93 1010.5
20260904044807 58 310 0.0 0.0 0.00 0.35 0.02 94 1010.6
20260904044306 58 310 0.0 0.0 0.00 0.35 0.02 94 1010.2
20260904043305 58 310 0.0 0.0 0.00 0.35 0.02 94 1010.3
20260904042805 59 310 0.0 0.9 0.00 0.35 0.02 94 1010.3
20260904042306 59 309 0.0 0.9 0.00 0.35 0.02 94 1010.1
20260904041306 59 137 0.0 1.7 0.00 0.35 0.02 94 1010.1
20260904040305 59 95 0.0 0.9 0.00 0.35 0.02 94 1010.0
20260904035807 59 1 0.0 0.0 0.00 0.35 0.02 94 1010.2
20260904035306 59 272 0.0 1.7 0.00 0.35 0.02 94 1010.5
20260904034806 59 266 0.0 2.6 0.00 0.35 0.02 94 1010.0
20260904034305 59 309 1.7 5.2 0.00 0.35 0.02 94 1010.2
20260904033806 59 318 0.9 4.3 0.00 0.35 0.02 94 1010.2
20260904033307 59 283 0.9 5.2 0.00 0.35 0.02 94 1010.1
20260904032807 59 292 0.9 2.6 0.00 0.35 0.02 94 1010.0
20260904030806 59 296 1.7 5.2 0.01 0.35 0.02 94 1009.6
20260904030307 59 299 0.9 5.2 0.01 0.35 0.02 94 1009.6
20260904025807 59 291 0.9 5.2 0.01 0.35 0.02 94 1009.6
20260904025306 59 310 2.6 5.2 0.01 0.35 0.02 94 1009.7
20260904024806 59 299 1.7 4.3 0.01 0.35 0.02 94 1009.6
20260904024307 59 302 1.7 4.3 0.01 0.35 0.02 94 1009.5
20260904023806 60 303 0.0 1.7 0.01 0.35 0.02 94 1009.6
20260904023306 60 284 0.0 2.6 0.01 0.35 0.02 94 1009.5
20260904022806 60 300 0.9 5.2 0.02 0.35 0.02 94 1009.5
20260904021806 60 291 0.9 6.1 0.02 0.35 0.02 94 1009.4
20260904021306 59 268 1.7 5.2 0.01 0.35 0.02 95 1009.6
20260904020807 59 285 0.9 4.3 0.01 0.35 0.02 96 1009.7
20260904014806 60 303 0.9 2.6 0.01 0.35 0.02 97 1009.5
20260904014308 60 271 0.0 0.9 0.02 0.35 0.02 97 1009.2
20260904013808 60 257 0.0 1.7 0.02 0.35 0.02 97 1009.3
20260904013306 60 277 0.0 1.7 0.02 0.35 0.02 97 1009.3
20260904012809 60 274 0.0 0.9 0.01 0.34 0.01 97 1009.5
20260904012307 60 311 0.0 0.9 0.01 0.34 0.01 97 1009.4
20260904011807 60 279 0.0 1.7 0.01 0.34 0.01 97 1009.4
20260904011308 59 269 0.0 0.0 0.01 0.34 0.01 97 1009.3
20260904010807 59 268 0.0 0.0 0.01 0.34 0.01 97 1009.0
20260904005807 59 269 0.0 0.0 0.01 0.34 0.01 97 1009.0
20260904005307 60 268 0.0 0.9 0.01 0.34 0.01 97 1009.0
20260904004807 59 268 0.0 0.0 0.01 0.34 0.01 97 1009.0
20260904004309 59 268 0.0 0.9 0.00 0.33 0.00 97 1009.2
20260904003807 60 295 0.0 1.7 0.00 0.33 0.00 97 1009.0
20260904002309 59 300 0.9 4.3 0.00 0.33 0.00 97 1008.9
20260904001807 59 305 0.0 0.9 0.00 0.33 0.00 97 1009.1
20260904001309 59 285 0.9 2.6 0.00 0.33 0.00 97 1009.1
20260904000808 59 291 0.9 5.2 0.00 0.33 0.00 97 1009.0
20260904000308 60 301 0.9 4.3 0.00 0.33 0.00 97 1009.1
20260903235808 59 306 0.9 5.2 0.00 0.33 0.00 97 1008.9
20260903235309 59 295 0.9 2.6 0.00 0.33 0.00 97 1008.8
20260903234808 59 281 0.0 0.9 0.00 0.33 0.00 97 1008.7
20260903234307 59 138 0.0 0.9 0.00 0.33 0.00 97 1008.4
20260903233808 59 138 0.0 0.9 0.00 0.33 0.00 97 1008.4
20260903233309 59 280 0.0 0.9 0.01 0.33 0.00 97 1008.4
20260903232808 59 275 0.0 0.9 0.01 0.33 0.00 97 1008.5
20260903232307 59 275 0.0 0.9 0.01 0.33 0.00 97 1008.3
20260903231809 59 278 0.0 0.9 0.01 0.33 0.00 97 1008.4
20260903231309 59 271 0.0 0.9 0.02 0.33 0.00 97 1008.6
20260903230826 59 314 0.0 0.9 0.02 0.33 0.00 97 1008.5
20260903230308 59 294 0.0 0.9 0.02 0.33 0.00 97 1008.5
20260903225808 59 307 0.0 2.6 0.02 0.33 0.33 97 1008.4
20260903225310 59 302 0.9 1.7 0.03 0.33 0.33 97 1008.4
20260903224808 59 305 0.9 1.7 0.05 0.33 0.33 97 1008.2
20260903224308 59 315 0.9 2.6 0.06 0.33 0.33 97 1008.3
20260903223808 59 295 1.7 5.2 0.06 0.33 0.33 97 1008.5
20260903223310 59 305 0.0 1.7 0.06 0.32 0.32 97 1008.5
20260903222308 59 309 0.9 5.2 0.06 0.32 0.32 97 1008.6
20260903221810 59 313 0.9 2.6 0.06 0.32 0.32 97 1008.5
20260903220808 60 315 2.6 5.2 0.06 0.31 0.31 96 1008.3
20260903220308 60 314 3.5 6.1 0.06 0.31 0.31 96 1008.3
20260903215808 60 305 5.2 7.8 0.07 0.31 0.31 96 1008.3
20260903213309 61 102 0.9 2.6 0.12 0.27 0.27 96 1008.1